Regional Weather Roundup
Issued by NWS

Home | Current Version | Previous Version | Graphics & Text | Print | Product List | Glossary On
Versions: 1 2 3 4 5 6 7 8 9 10 11 12 13 14 15 16 17 18 19 20 21 22 23 24 25 26 27
000
ASUS45 KTFX 271810
RWRMT
MONTANA REGIONAL WEATHER ROUNDUP
NATIONAL WEATHER SERVICE GREAT FALLS MT
1100 AM MST MON FEB 27 2017

NOTE: "FAIR" INDICATES FEW OR NO CLOUDS BELOW 12000 FEET WITH NO
SIGNIFICANT WEATHER AND/OR OBSTRUCTIONS TO VISIBILITY.

MTZ001>007-043-271900-
WEST OF THE DIVIDE

CITY           SKY/WX    TMP DP  RH WIND       PRES   REMARKS
KALISPELL      LGT SNOW  20  13  74 CALM      29.62F
MISSOULA       CLOUDY    26  20  77 SE9       29.61S WCI  17
BUTTE          CLOUDY    22  10  60 CALM      29.51S
MULLAN PASS    LGT SNOW  20  15  81 VRB6      29.46S WCI  12
ANACONDA         N/A     28  12  50 SE12G18   29.52S WCI  18
DEER LODGE       N/A     21  14  73 NE3       29.56S
EUREKA           N/A     18  10  73 N6        29.63F WCI   9
HAMILTON         N/A     28  19  69 S9        29.59R WCI  20
LIBBY            N/A     21  18  86 CALM      29.62S
RONAN            N/A     23  19  85 MISG      29.68S
$$

MTZ008-052>055-271900-
SOUTHWEST MONTANA

CITY           SKY/WX    TMP DP  RH WIND       PRES   REMARKS
BOZEMAN        CLOUDY    20  13  74 CALM      29.58F
DILLON         CLOUDY    23   8  52 SW7       29.53F WCI  15
W YELLOWSTONE  LGT SNOW  16  14  93 NE5       29.54F
ENNIS          PTSUNNY   28   7  40 S17       29.57F WCI  16
THREE FORKS      N/A     23 -25  11 CALM      29.62F
$$

MTZ009-010-012-014-046-048-049-054-271900-
EAST SLOPES AND CENTRAL MONTANA

CITY           SKY/WX    TMP DP  RH WIND       PRES   REMARKS
CUT BANK       CLOUDY    12   8  84 S16       29.56F FOG     WCI  -5
GREAT FALLS    SUNNY     14   9  80 SE6       29.58F WCI   5
MALMSTROM AFB  SUNNY     11   9  95 S6        29.61F WCI   1
HELENA         SUNNY     17   9  70 N3        29.61F
AUGUSTA          N/A      9   8  93 SW6       29.52F WCI  -1
BOWMANS CRNR   FLURRIES  13  11  93 S18       29.50F WCI  -5
CHOTEAU          N/A     14   9  79 SE5       29.58F
CONRAD           N/A     13   8  80 E8        29.65S WCI   2
POWER          FLURRIES  11   9  92 SE6       29.57F WCI   2
RAYNESFORD       N/A     13   9  82 SE16      29.57F WCI  -3
ULM              N/A     12   9  85 MISG      29.59F
$$

MTZ011-013-016-021-045-047-050-051-271900-
NORTH CENTRAL MONTANA

CITY           SKY/WX    TMP DP  RH WIND       PRES   REMARKS
HAVRE          SUNNY     18  11  74 E14       29.69F WCI   4
LEWISTOWN      SUNNY     16   9  74 E10       29.58F WCI   4
N BAR RANCH    LGT SNOW  10   7  85 E9        29.62S WCI  -2
CHINOOK          N/A     16  10  79 E13       29.73F WCI   2
DENTON           N/A     16  10  79 SE7       29.59F WCI   6
FORT BENTON      N/A     21  12  68 MISG      29.67F
GEYSER           N/A     10   7  89 CALM      29.58F
GRASS RANGE      N/A     13  12  94 E9        29.60F WCI   1
JUDITH GAP     FLURRIES  10   7  87 S15       29.57F WCI  -6
ROY            FLURRIES  14  12  95 MISG      29.63F
STANFORD         N/A     11   9  92 E3        29.56S
WINIFRED       FLURRIES  14  13  95 E14       29.62S WCI  -1
$$

MTZ017>020-022>027-061-062-271900-
NORTHEAST MONTANA

CITY           SKY/WX    TMP DP  RH WIND       PRES   REMARKS
GLASGOW        PTSUNNY   16   9  74 SE13      29.78F WCI   2
JORDAN           N/A     18  13  80 E9        29.73F WCI   7
SIDNEY         FLURRIES  18  12  77 NE13      29.82S WCI   5
WOLF POINT     LGT SNOW  15   7  70 E13       29.83S WCI   1
POPLAR           N/A     10   5  79 E13       29.84S WCI  -5
SCOBEY           N/A     15  -1  49 NW5       29.79S
$$

MTZ028>42-056>058-271900-
SOUTHCENTRAL AND SOUTHEAST MONTANA

CITY           SKY/WX    TMP DP  RH WIND       PRES   REMARKS
BAKER          MOSUNNY   29  20  69 E7        29.66S WCI  22
BILLINGS       CLOUDY    21  15  78 NE7       29.65S WCI  12
LIVINGSTON     CLOUDY    22  15  75 E8        29.55F WCI  12
MILES CITY     CLOUDY    25  17  72 NE10      29.70R WCI  15
BIG TIMBER     CLOUDY    21  16  79 E5        29.61S
HARLOWTON      FLURRIES  15  11  86 E10       29.60F WCI   2
LAUREL           N/A     23  12  62 NE1       29.65S
$$

REGIONAL REPORTS...DAKOTAS

CITY           SKY/WX    TMP DP  RH WIND       PRES   REMARKS
WILLISTON      LGT SNOW  13   6  74 NE12      29.84F WCI  -1
MINOT          LGT SNOW  13   6  74 NW6       29.86S WCI   4
DICKINSON      CLOUDY    18  14  84 NE15      29.71S WCI   4
BEACH            N/A    N/A N/A N/A MISG        N/A
CROSBY           N/A      7   1  78 N6        29.88S WCI  -3
TIOGA          CLOUDY     9   7  92 NE9       29.83S FOG     WCI  -5
WATFORD CITY   LGT SNOW  14   9  79 NE12      29.82S WCI   0
BISMARCK       PTSUNNY   23  17  78 NE13      29.81F WCI  11
GRAND FORKS    CLOUDY    23  14  68 SW3       29.92R
FARGO          CLOUDY    30  18  60 CALM      29.89F
BUFFALO SD       N/A     30  22  72 CALM      29.58R
RAPID CITY     CLOUDY    36  19  50 SE8       29.62F WCI  30
$$

REGIONAL REPORTS...WYOMING/IDAHO/WASHINGTON

CITY           SKY/WX    TMP DP  RH WIND       PRES   REMARKS
GILLETTE       CLOUDY    35  14  42 W7        29.58R WCI  29
SHERIDAN       CLOUDY    25  17  72 VRB5      29.61S
BUFFALO WY     CLOUDY    27  12  53 NW9       29.58R WCI  18
CODY           CLOUDY    30  12  47 NE9       29.55S WCI  22
YELLOWSTONE LA   N/A     15   8  73 CALM      29.51F
IDAHO FALLS    LGT SNOW  24  22  91 N3        29.63S FOG
SALMON         CLOUDY    27   9  46 N6        29.61R WCI  20
BOISE          CLOUDY    32  23  69 W6        29.76R WCI  26
SPOKANE        LGT SNOW  27  25  92 SW12      29.65S FOG     WCI  17
$$

REGIONAL REPORTS...ALBERTA

CITY           SKY/WX    TMP DP  RH WIND       PRES   REMARKS
EDMONTON       PTSUNNY   14   1  57 SW6       29.62S WCI   5
CALGARY        MOSUNNY   10   0  61 S7        29.53S WCI   0
LETHBRIDGE     PTSUNNY   16   9  73 SW9       29.58F WCI   4
MEDICINE HAT   MOSUNNY   10   0  61 E6        29.71F WCI   1
WATERTON GATE    N/A     14   3  62 NE5         N/A
CARDSTON         N/A     23   3  42 S2          N/A
MILK RIVER       N/A     16  10  79 S18         N/A  WCI  -1
ONEFOUR          N/A     12   5  73 E13         N/A  WCI  -3
$$

REGIONAL REPORTS...SASKATCHEWAN

CITY           SKY/WX    TMP DP  RH WIND       PRES   REMARKS
SWIFT CURRENT  SUNNY      9   3  78 S9        29.73S WCI  -5
REGINA         MOSUNNY    7  -4  61 W3        29.84S
SASKATOON      MOSUNNY    9  -2  61 SW14      29.82F WCI  -8
CYPRESS HILLS    N/A      5   0  78 S9          N/A  WCI  -9
VAL MARIE        N/A     14   7  73 SE6         N/A  WCI   5
ROCKGLEN         N/A      7   0  72 S3          N/A
ASSINIBOIA       N/A     14   3  62 S9          N/A  WCI   2
$$




USA.gov is the U.S. government's official web portal to all federal, state and local government web resources and services.